Terug naar catalogus

ARIANE 5 R/B

ActiefHEO
NORAD 32254·ROCKET BODY·🇫🇷 France

Gelanceerd Oct 5, 2007 vanaf Guiana Space Centre

Loading…

Volgende Passages (komende 24 uur)

TLE

VersSource: Space-Track

Epoch: Sep 14, 2026, 01:38 UTC

1 32254U 07044C   26257.06866067  .00000417  00000-0  55989-3 0  9993
2 32254   4.6040 312.0961 7068870 176.1381 195.5977  2.49737060170556

Volg ARIANE 5 R/B in realtime met AllMySat

Download on the App Store